"Pseudo-MPEC" for P21bV6J

Created 2021 Jan 14 11:07:28 UT using Find_Orb

Click here for an explanation of pseudo-MPECs

 
 Astrometry: 
     P21bV6J  C2021 01 12+skmp,WMjAstrometryi(Z@X]pIRg@A/%-S*S_E$krI8C0op9R5YF52
     P21bV6J  C2021 01 120r)3KqSF3SZ=,:#+rH$v`!,0q`I$O(4eM\UM=BZQ`fk=K?):Y*FiF52
     P21bV6J  C2021 01 12V`8Z6tH8`J?vZl9VLjl\3=TRGnf+nUaTHADBj\\redacted;nUY(F52
     P21bV6J KC2021 01 13Gr_clickMcUsyik-ul!awIqhere_#?aJ^D?nW!oO`ClpE_aR4S-PH21
     P21bV6J KC2021 01 13QVG6for4fp6'AN%:B\o8fV52L+XemdSL)Q(*App8,x35W'W:vI,8H21
     P21bV6J KC2021 01 1382DJQki+k;4ww?rnidexplanationTAQiyXGm/Jsoce\aj3R3wN-H21
     P21bV6J  C2021 01 14.29230308 55 44.95 +44 28 12.0    ~1E87 22.11GVNEOCPG96
     P21bV6J  C2021 01 14.29816908 55 44.43 +44 28 18.9    ~1E87 21.25GVNEOCPG96
     P21bV6J  C2021 01 14.30403008 55 43.91 +44 28 26.2    ~1E87 21.47GVNEOCPG96
     P21bV6J  C2021 01 14.30990108 55 43.41 +44 28 33.0    ~1E87 21.36GVNEOCPG96

Station data:
(F52) Pan-STARRS 2, Haleakala  (N20.707384 W156.255910)  US/Hawaii. 1.8-m
   Ritchey-Chrétien + CCD.
(G96) Mt. Lemmon Survey  (N32.442754 W110.788720)  US/Arizona.  Observers T.
   A. Pruyne, B. M. Africano, E. J. Christensen, G. A. Farneth, D. C. Fuls,
   A. R. Gibbs, A. D. Grauer, H. Gröller, J. A. Johnson, R. A. Kowalski, S.
   M. Larson, G. J. Leonard, D. Rankin, R. L. Seaman, F. C. Shelly. 1.5-m
   reflector + 10K CCD.
(H21) Astronomical Research Observatory, Westfield  (N39.483057 W87.968270)
   US/Illinois. 0.76-m f/3.0 astrograph + CCD.

Orbital elements:  P21bV6J
   Perihelion 2020 Mar 21.668752 +/- 31.6898 TT = 16:03:00 (JD 2458930.168752)
Epoch 2021 Jan 14.0 TT = JDT 2459228.5   Earth MOID: 0.8106   AutoNEOCP
M 110.86879144 +/- 12.776756        (J2000 ecliptic)
n   0.37162983 +/- 0.012719         Peri.  270.89488 +/- 10.552694
a   1.91600072 +/- 0.0437046        Node    86.70823 +/- 1.8867582
e   0.1267888 +/- 0.0185128         Incl.   24.84589 +/- 1.6062093
P   2.65/968.69d           H 19.2   G  0.15   U  9.8  
q 1.67307321 +/- 0.0117663    Q 2.15892824 +/- 0.082136
From 10 observations 2021 Jan. 12-14 (44.3 hr); mean residual 0".18
Residuals in arcseconds: 
210112 F52  .07+  .12-    210113 H21  .54-  .06-    210114 G96  .15-  .14+    
210112 F52  .13-  .10+    210113 H21  .25+  .00     210114 G96  .13-  .15-    
210112 F52  .09+  .05+    210114 G96  .25+  .11+    
210113 H21  .25+  .03+    210114 G96  .05+  .08-    

Ephemerides (geocentric):
Date (UTC) HH   RA              Dec         delta   r     elong  mag " sig PA
---- -- -- --  -------------   -----------  ------ ------ -----  --- ---- ---
2021 01 14 11  08 55 31.042   +44 31 29.17  1.1041 2.0281 152.5 21.7 .405  60
2021 01 14 12  08 55 27.616   +44 32 18.88  1.1041 2.0282 152.5 21.7 .448  59
2021 01 14 13  08 55 24.187   +44 33 08.55  1.1041 2.0282 152.5 21.7 .493  58
2021 01 14 14  08 55 20.754   +44 33 58.18  1.1041 2.0283 152.5 21.7 .540  57
2021 01 14 15  08 55 17.317   +44 34 47.77  1.1042 2.0283 152.5 21.7 .589  56
2021 01 14 16  08 55 13.876   +44 35 37.32  1.1042 2.0284 152.5 21.7 .639  56
2021 01 14 17  08 55 10.431   +44 36 26.83  1.1042 2.0284 152.6 21.7 .691  55
2021 01 14 18  08 55 06.983   +44 37 16.30  1.1042 2.0285 152.6 21.7 .744  55
2021 01 14 19  08 55 03.530   +44 38 05.72  1.1042 2.0285 152.6 21.7 .800  54
2021 01 14 20  08 55 00.074   +44 38 55.11  1.1043 2.0286 152.6 21.7 .857  54
2021 01 14 21  08 54 56.615   +44 39 44.46  1.1043 2.0287 152.6 21.7 .915  54
2021 01 14 22  08 54 53.151   +44 40 33.76  1.1043 2.0287 152.6 21.7 .976  53
2021 01 14 23  08 54 49.684   +44 41 23.02  1.1043 2.0288 152.6 21.7 1.04  53
2021 01 15 00  08 54 46.213   +44 42 12.25  1.1043 2.0288 152.6 21.7 1.10  53
2021 01 15 01  08 54 42.738   +44 43 01.43  1.1044 2.0289 152.6 21.7 1.17  52
2021 01 15 02  08 54 39.259   +44 43 50.57  1.1044 2.0289 152.6 21.7 1.23  52
2021 01 15 03  08 54 35.777   +44 44 39.66  1.1044 2.0290 152.6 21.7 1.30  52
2021 01 15 04  08 54 32.291   +44 45 28.72  1.1044 2.0290 152.6 21.7 1.37  51
2021 01 15 05  08 54 28.801   +44 46 17.73  1.1045 2.0291 152.6 21.7 1.44  51
2021 01 15 06  08 54 25.308   +44 47 06.71  1.1045 2.0291 152.6 21.7 1.52  51
2021 01 15 07  08 54 21.811   +44 47 55.64  1.1045 2.0292 152.7 21.7 1.59  51
2021 01 15 08  08 54 18.310   +44 48 44.52  1.1045 2.0293 152.7 21.7 1.67  50
2021 01 15 09  08 54 14.805   +44 49 33.37  1.1046 2.0293 152.7 21.7 1.75  50
2021 01 15 10  08 54 11.297   +44 50 22.17  1.1046 2.0294 152.7 21.7 1.83  50
2021 01 15 11  08 54 07.786   +44 51 10.94  1.1046 2.0294 152.7 21.7 1.91  50
2021 01 15 12  08 54 04.270   +44 51 59.66  1.1046 2.0295 152.7 21.7 1.99  50
2021 01 15 13  08 54 00.751   +44 52 48.33  1.1047 2.0295 152.7 21.7 2.08  49
2021 01 15 14  08 53 57.229   +44 53 36.97  1.1047 2.0296 152.7 21.7 2.17  49
2021 01 15 15  08 53 53.703   +44 54 25.56  1.1047 2.0296 152.7 21.7 2.25  49
2021 01 15 16  08 53 50.173   +44 55 14.11  1.1048 2.0297 152.7 21.7 2.34  49
2021 01 15 17  08 53 46.639   +44 56 02.61  1.1048 2.0298 152.7 21.7 2.44  49
2021 01 15 18  08 53 43.102   +44 56 51.07  1.1048 2.0298 152.7 21.7 2.53  49
2021 01 15 19  08 53 39.562   +44 57 39.49  1.1048 2.0299 152.7 21.7 2.62  48
2021 01 15 20  08 53 36.018   +44 58 27.87  1.1049 2.0299 152.7 21.7 2.72  48
2021 01 15 21  08 53 32.470   +44 59 16.20  1.1049 2.0300 152.7 21.7 2.82  48
2021 01 15 22  08 53 28.919   +45 00 04.49  1.1049 2.0300 152.7 21.7 2.92  48
2021 01 15 23  08 53 25.364   +45 00 52.74  1.1050 2.0301 152.7 21.7 3.02  48
2021 01 16 00  08 53 21.806   +45 01 40.94  1.1050 2.0301 152.8 21.7 3.12  48
2021 01 16 01  08 53 18.244   +45 02 29.10  1.1050 2.0302 152.8 21.7 3.23  48
2021 01 16 02  08 53 14.679   +45 03 17.21  1.1051 2.0302 152.8 21.7 3.33  47
2021 01 16 03  08 53 11.110   +45 04 05.28  1.1051 2.0303 152.8 21.7 3.44  47
2021 01 16 04  08 53 07.538   +45 04 53.31  1.1051 2.0304 152.8 21.7 3.55  47
2021 01 16 05  08 53 03.962   +45 05 41.29  1.1052 2.0304 152.8 21.7 3.66  47
2021 01 16 06  08 53 00.383   +45 06 29.23  1.1052 2.0305 152.8 21.7 3.78  47
2021 01 16 07  08 52 56.800   +45 07 17.13  1.1052 2.0305 152.8 21.7 3.89  47
2021 01 16 08  08 52 53.214   +45 08 04.98  1.1053 2.0306 152.8 21.7 4.01  47
2021 01 16 09  08 52 49.625   +45 08 52.78  1.1053 2.0306 152.8 21.7 4.12  47
2021 01 16 10  08 52 46.032   +45 09 40.55  1.1054 2.0307 152.8 21.7 4.24  46